Location: Baggettsville
(36.4767°N, 86.7303°W)
Time: 12:45:57
(UTC+00:00)

N. Korean satellite - Pass Details

Date: 18 September 2021
Orbit: 450 x 495 km, 97.3° (Epoch: 19 October)

Event Time Altitude Azimuth Distance (km) Brightness Sun altitude
Rises 09:58:33 0° 37° (NE) 2,506 11.1 -19.3°
Reaches altitude 10° 10:01:51 10° 72° (ENE) 1,636 10.5 -18.6°
Maximum altitude 10:03:07 12° 93° (E) 1,542 10.1 -18.4°
Drops below altitude 10° 10:04:23 10° 114° (ESE) 1,641 9.9 -18.1°
Sets 10:07:41 0° 149° (SSE) 2,526 10.4 -17.5°
